QPF
0.00 0.00 0.00 0.00 0.00 0.00 0.00 0.00 0.00 0.00 0.00 0.00 0.00 0.00 0.00 0.00 0.00 0.00 0.00 0.00 0.00 0.00 0.00 0.00 0.00 0.00 0.00 0.00 0.00 0.00 0.00 0.04 0.09 0.09 0.10 0.05 0.02 0.01 0.00 0.00 0.00 0.00 0.00 0.00 0.00 0.00 0.00
0.00 0.00 0.00 0.00 0.00 0.00 0.00 0.00 0.00 0.00 0.00 0.00 0.00 0.00 0.00 0.00 0.00 0.00 0.00 0.00 0.00 0.00 0.00 0.00 0.00 0.00 0.00 0.00 0.00 0.00 0.00 0.02 0.03 0.03 0.03 0.04 0.03 0.00 0.00 0.00 0.00 0.00 0.00 0.00 0.00 0.00 0.00
0.00 0.00 0.00 0.00 0.00 0.00 0.00 0.00 0.00 0.00 0.00 0.00 0.00 0.00 0.00 0.00 0.00 0.00 0.00 0.00 0.00 0.00 0.00 0.00 0.00 0.00 0.00 0.00 0.00 0.00 0.00 0.01 0.00 0.00 0.00 0.02 0.01 0.00 0.00 0.00 0.00 0.00 0.00 0.00 0.00 0.00 0.00
0.00 0.00 0.00 0.00 0.00 0.00 0.00 0.00 0.00 0.00 0.00 0.00 0.00 0.00 0.00 0.00 0.00 0.00 0.00 0.00 0.00 0.00 0.00 0.00 0.00 0.00 0.00 0.00 0.00 0.00 0.00 0.02 0.00 0.00 0.00 0.00 0.00 0.00 0.00 0.00 0.00 0.00 0.00 0.00 0.00 0.00 0.00
0.00 0.00 0.00 0.00 0.00 0.00 0.00 0.00 0.00 0.00 0.00 0.00 0.00 0.00 0.00 0.00 0.00 0.00 0.00 0.00 0.00 0.00 0.00 0.00 0.00 0.00 0.00 0.00 0.00 0.00 0.00 0.00 0.00 0.00 0.00 0.01 0.00 0.00 0.00 0.00 0.00 0.00 0.00 0.00 0.00 0.00 0.00
0.00 0.00 0.00 0.00 0.00 0.00 0.00 0.00 0.00 0.00 0.00 0.00 0.00 0.00 0.00 0.00 0.00 0.00 0.00 0.00 0.00 0.00 0.00 0.00 0.00 0.00 0.00 0.00 0.00 0.00 0.00 0.00 0.00 0.00 0.01 0.00 0.00 0.00 0.00 0.00 0.00 0.00 0.00 0.00 0.00 0.00 0.00
0.00 0.00 0.00 0.00 0.00 0.00 0.00 0.00 0.00 0.00 0.00 0.00 0.00 0.00 0.00 0.00 0.00 0.00 0.00 0.00 0.00 0.00 0.00 0.00 0.00 0.00 0.00 0.00 0.00 0.00 0.00 0.00 0.00 0.01 0.00 0.00 0.00 0.00 0.00 0.00 0.00 0.00 0.00 0.00 0.00 0.00 0.00
0.00 0.00 0.00 0.00 0.00 0.00 0.00 0.00 0.00 0.00 0.00 0.00 0.00 0.00 0.00 0.00 0.00 0.00 0.00 0.00 0.00 0.00 0.00 0.00 0.00 0.00 0.00 0.00 0.00 0.00 0.00 0.00 0.00 0.00 0.00 0.00 0.00 0.00 0.00 0.00 0.00 0.00 0.00 0.00 0.00 0.00 0.00
0.00 0.00 0.00 0.00 0.00 0.00 0.00 0.00 0.00 0.00 0.00 0.00 0.00 0.00 0.00 0.00 0.00 0.00 0.00 0.00 0.00 0.00 0.00 0.00 0.00 0.00 0.00 0.00 0.00 0.00 0.00 0.00 0.00 0.00 0.00 0.00 0.00 0.00 0.00 0.00 0.00 0.00 0.00 0.00 0.00 0.00 0.00
0.00 0.00 0.00 0.00 0.00 0.00 0.00 0.00 0.00 0.00 0.00 0.00 0.00 0.00 0.00 0.00 0.00 0.00 0.00 0.00 0.00 0.00 0.00 0.00 0.00 0.00 0.00 0.00 0.00 0.00 0.00 0.00 0.00 0.00 0.00 0.00 0.00 0.00 0.00 0.00 0.00 0.00 0.00 0.00 0.00 0.00 0.00
0.00 0.00 0.00 0.00 0.00 0.00 0.00 0.00 0.00 0.00 0.00 0.00 0.00 0.00 0.00 0.00 0.00 0.00 0.00 0.00 0.00 0.00 0.00 0.00 0.00 0.00 0.00 0.00 0.00 0.00 0.00 0.00 0.00 0.00 0.00 0.00 0.00 0.00 0.00 0.00 0.00 0.00 0.00 0.00 0.00 0.00 0.00
0.00 0.00 0.00 0.00 0.00 0.00 0.00 0.00 0.00 0.00 0.00 0.00 0.00 0.00 0.00 0.00 0.00 0.00 0.00 0.00 0.00 0.00 0.00 0.00 0.00 0.00 0.00 0.00 0.00 0.00 0.00 0.00 0.00 0.00 0.00 0.00 0.00 0.00 0.00 0.00 0.00 0.00 0.00 0.00 0.00 0.00 0.00
0.00 0.00 0.00 0.00 0.00 0.00 0.00 0.00 0.00 0.00 0.00 0.00 0.00 0.00 0.00 0.00 0.00 0.00 0.00 0.00 0.00 0.00 0.00 0.00 0.00 0.00 0.00 0.00 0.00 0.00 0.00 0.00 0.00 0.00 0.00 0.00 0.00 0.00 0.00 0.00 0.00 0.00 0.00 0.00 0.00 0.00 0.00
0.00 0.00 0.00 0.00 0.00 0.00 0.00 0.00 0.00 0.00 0.00 0.00 0.00 0.00 0.00 0.00 0.00 0.00 0.00 0.00 0.00 0.00 0.00 0.00 0.00 0.00 0.00 0.00 0.00 0.00 0.00 0.00 0.00 0.00 0.00 0.00 0.00 0.00 0.00 0.00 0.00 0.00 0.00 0.00 0.00 0.00 0.00
0.00 0.00 0.00 0.00 0.00 0.00 0.00 0.00 0.00 0.00 0.00 0.00 0.00 0.00 0.00 0.00 0.00 0.00 0.00 0.00 0.00 0.00 0.00 0.00 0.00 0.00 0.00 0.00 0.00 0.00 0.00 0.00 0.00 0.00 0.00 0.00 0.00 0.00 0.00 0.00 0.00 0.00 0.00 0.00 0.00 0.00 0.00
0.00 0.00 0.00 0.00 0.00 0.00 0.00 0.00 0.00 0.00 0.00 0.00 0.00 0.00 0.00 0.00 0.00 0.00 0.00 0.00 0.00 0.00 0.00 0.00 0.00 0.00 0.00 0.00 0.00 0.00 0.00 0.00 0.00 0.00 0.00 0.00 0.00 0.00 0.00 0.00 0.00 0.00 0.00 0.00 0.00 0.00 0.00
0.00 0.00 0.00 0.00 0.00 0.00 0.00 0.00 0.00 0.00 0.00 0.00 0.00 0.00 0.00 0.00 0.00 0.00 0.00 0.00 0.00 0.00 0.00 0.00 0.00 0.00 0.00 0.00 0.00 0.00 0.00 0.00 0.00 0.00 0.00 0.00 0.00 0.00 0.00 0.00 0.00 0.00 0.00 0.00 0.00 0.00 0.00
0.00 0.00 0.00 0.00 0.00 0.00 0.00 0.00 0.00 0.00 0.00 0.00 0.00 0.00 0.00 0.00 0.00 0.00 0.00 0.00 0.00 0.00 0.00 0.00 0.00 0.00 0.00 0.00 0.00 0.00 0.00 0.00 0.00 0.00 0.00 0.00 0.00 0.00 0.00 0.00 0.00 0.00 0.00 0.00 0.00 0.00 0.00
0.00 0.00 0.00 0.00 0.00 0.00 0.00 0.00 0.00 0.00 0.00 0.00 0.00 0.00 0.00 0.00 0.00 0.00 0.00 0.00 0.00 0.00 0.00 0.00 0.00 0.00 0.00 0.00 0.00 0.00 0.00 0.00 0.00 0.00 0.00 0.00 0.00 0.00 0.00 0.00 0.00 0.00 0.00 0.00 0.00 0.00 0.00
0.00 0.00 0.00 0.00 0.00 0.00 0.00 0.00 0.00 0.00 0.00 0.00 0.00 0.00 0.00 0.00 0.00 0.00 0.00 0.00 0.00 0.00 0.00 0.00 0.00 0.00 0.00 0.00 0.00 0.00 0.00 0.00 0.00 0.00 0.00 0.00 0.00 0.00 0.00 0.00 0.00 0.00 0.00 0.00 0.00 0.00 0.00
0.00 0.00 0.00 0.00 0.00 0.00 0.00 0.00 0.00 0.00 0.00 0.00 0.00 0.00 0.00 0.00 0.00 0.00 0.00 0.00 0.00 0.00 0.00 0.00 0.00 0.00 0.00 0.00 0.00 0.00 0.00 0.00 0.00 0.00 0.00 0.00 0.00 0.00 0.00 0.00 0.00 0.00 0.00 0.00 0.00 0.00 0.00
0.00 0.00 0.00 0.00 0.00 0.00 0.00 0.00 0.00 0.00 0.00 0.00 0.00 0.00 0.00 0.00 0.00 0.00 0.00 0.00 0.00 0.00 0.00 0.00 0.00 0.00 0.00 0.00 0.00 0.00 0.00 0.00 0.00 0.00 0.00 0.00 0.00 0.00 0.00 0.00 0.00 0.00 0.00 0.00 0.00 0.00 0.00
0.00 0.00 0.00 0.00 0.00 0.00 0.00 0.00 0.00 0.00 0.00 0.00 0.00 0.00 0.00 0.00 0.00 0.00 0.00 0.00 0.00 0.00 0.00 0.00 0.00 0.00 0.00 0.00 0.00 0.00 0.00 0.00 0.00 0.00 0.00 0.00 0.00 0.00 0.00 0.00 0.00 0.00 0.00 0.00 0.00 0.00 0.00
0.00 0.00 0.00 0.00 0.00 0.00 0.00 0.00 0.00 0.00 0.00 0.00 0.00 0.00 0.00 0.00 0.00 0.00 0.00 0.00 0.00 0.00 0.00 0.00 0.00 0.00 0.00 0.00 0.00 0.00 0.00 0.00 0.00 0.00 0.00 0.00 0.00 0.00 0.00 0.00 0.00 0.00 0.00 0.00 0.00 0.00 0.00
0.00 0.00 0.00 0.00 0.00 0.00 0.00 0.00 0.00 0.00 0.00 0.00 0.00 0.00 0.00 0.00 0.00 0.00 0.00 0.00 0.00 0.00 0.00 0.00 0.00 0.00 0.00 0.00 0.00 0.00 0.00 0.00 0.00 0.00 0.00 0.00 0.00 0.00 0.00 0.00 0.00 0.00 0.00 0.00 0.00 0.00 0.00
0.00 0.00 0.00 0.00 0.00 0.00 0.00 0.00 0.00 0.00 0.00 0.00 0.00 0.00 0.00 0.00 0.00 0.00 0.00 0.00 0.00 0.00 0.00 0.00 0.00 0.00 0.00 0.00 0.00 0.00 0.00 0.00 0.00 0.00 0.00 0.00 0.00 0.00 0.00 0.00 0.00 0.00 0.00 0.00 0.00 0.00 0.00
0.00 0.00 0.00 0.00 0.00 0.00 0.00 0.00 0.00 0.00 0.00 0.00 0.00 0.00 0.00 0.00 0.00 0.00 0.00 0.00 0.00 0.00 0.00 0.00 0.00 0.00 0.00 0.00 0.00 0.00 0.00 0.00 0.00 0.00 0.00 0.00 0.00 0.00 0.00 0.00 0.00 0.00 0.00 0.00 0.00 0.00 0.00
0.00 0.00 0.00 0.00 0.00 0.00 0.00 0.00 0.00 0.00 0.00 0.00 0.00 0.00 0.00 0.00 0.00 0.00 0.00 0.00 0.00 0.00 0.00 0.00 0.00 0.00 0.00 0.00 0.00 0.00 0.00 0.00 0.00 0.00 0.00 0.00 0.00 0.00 0.00 0.00 0.00 0.00 0.00 0.00 0.00 0.00 0.00
0.00 0.00 0.00 0.00 0.00 0.00 0.00 0.00 0.00 0.00 0.00 0.00 0.00 0.00 0.00 0.00 0.00 0.00 0.00 0.00 0.00 0.00 0.00 0.00 0.00 0.00 0.00 0.00 0.00 0.00 0.00 0.00 0.00 0.00 0.00 0.00 0.00 0.00 0.00 0.00 0.00 0.00 0.00 0.00 0.00 0.00 0.00
MSLP
1021.93 1021.73 1021.51 1021.24 1021.04 1020.81 1020.45 1020.11 1019.87 1019.50 1019.18 1018.78 1018.39 1018.12 1017.78 1017.41 1017.05 1016.67 1016.36 1015.96 1015.62 1015.39 1015.14 1015.09 1014.91 1014.69 1014.66 1015.61 1016.58 1016.13 1015.88 1015.60 1015.35 1015.35 1015.69 1015.92 1016.25 1016.55 1016.42 1016.36 1016.31 1016.52 1016.40 1016.26 1015.78 1015.71 1015.93
1022.24 1022.01 1021.75 1021.47 1021.15 1020.87 1020.53 1020.16 1019.82 1019.48 1019.07 1018.71 1018.29 1018.08 1017.77 1017.37 1016.96 1016.49 1016.32 1015.98 1015.46 1015.32 1015.33 1015.08 1014.74 1014.73 1015.30 1016.54 1016.58 1016.25 1015.95 1015.75 1015.66 1015.70 1015.91 1016.23 1016.72 1016.72 1016.48 1016.28 1016.30 1016.36 1016.44 1016.42 1016.06 1016.13 1016.23
1022.53 1022.27 1022.01 1021.67 1021.29 1020.91 1020.50 1020.13 1019.73 1019.32 1019.05 1018.62 1018.18 1017.89 1017.66 1017.34 1016.85 1016.40 1016.12 1015.90 1015.56 1015.31 1015.39 1015.09 1014.86 1015.15 1016.14 1017.09 1016.51 1016.28 1016.00 1016.05 1015.94 1015.79 1015.75 1016.41 1016.77 1016.77 1016.34 1016.26 1016.39 1016.47 1016.72 1016.50 1016.61 1016.42 1016.48
1022.71 1022.44 1022.14 1021.76 1021.40 1020.97 1020.48 1020.07 1019.60 1019.19 1018.89 1018.58 1018.20 1017.90 1017.44 1017.17 1016.75 1016.18 1015.94 1015.73 1015.41 1015.22 1015.18 1015.16 1015.12 1015.43 1016.69 1016.69 1016.31 1016.19 1016.06 1016.13 1016.16 1016.26 1016.47 1016.58 1016.75 1016.78 1016.49 1016.34 1016.55 1016.79 1016.92 1017.04 1017.07 1016.53 1016.46
1022.97 1022.70 1022.35 1021.90 1021.50 1021.07 1020.52 1019.97 1019.54 1019.13 1018.75 1018.50 1018.21 1017.89 1017.57 1017.00 1016.57 1016.03 1015.54 1015.51 1015.34 1015.07 1015.13 1015.19 1015.40 1015.84 1017.67 1017.10 1016.30 1016.12 1016.02 1016.19 1016.17 1016.39 1016.57 1016.69 1016.75 1016.96 1016.66 1016.81 1017.49 1017.70 1017.80 1017.45 1017.28 1016.99 1016.61
1023.12 1022.95 1022.52 1022.09 1021.66 1021.17 1020.68 1020.13 1019.57 1019.17 1018.77 1018.43 1018.18 1017.80 1017.63 1017.17 1016.55 1015.98 1015.42 1015.36 1015.40 1015.23 1015.49 1015.55 1015.94 1016.68 1018.06 1017.61 1016.71 1016.08 1016.18 1016.15 1016.17 1016.37 1016.45 1016.61 1016.81 1017.21 1017.48 1017.47 1017.95 1018.18 1018.35 1018.00 1017.60 1017.73 1017.10
1023.29 1023.06 1022.79 1022.28 1021.81 1021.32 1020.79 1020.23 1019.71 1019.23 1018.79 1018.39 1018.06 1017.77 1017.58 1017.16 1016.69 1016.10 1015.47 1015.64 1016.44 1016.46 1016.35 1017.04 1017.05 1017.02 1017.56 1017.28 1016.67 1016.27 1016.09 1016.17 1016.41 1016.65 1017.30 1017.15 1017.67 1017.97 1018.13 1017.72 1017.87 1017.96 1018.11 1018.28 1018.41 1018.18 1017.90
1023.43 1023.07 1022.78 1022.38 1021.95 1021.44 1020.92 1020.31 1019.79 1019.33 1018.82 1018.39 1017.98 1017.62 1017.35 1017.11 1016.71 1016.35 1016.44 1017.73 1018.33 1018.60 1017.86 1017.02 1016.91 1016.73 1016.85 1016.79 1016.99 1016.79 1016.66 1016.90 1017.48 1017.44 1017.23 1017.67 1018.33 1018.49 1018.26 1017.89 1018.10 1018.32 1018.41 1018.99 1019.04 1018.64 1018.33
1023.55 1023.23 1022.86 1022.47 1022.00 1021.52 1020.98 1020.49 1019.94 1019.41 1018.95 1018.44 1017.98 1017.54 1017.15 1016.90 1016.71 1016.85 1017.70 1018.34 1018.46 1018.66 1018.27 1017.36 1016.91 1016.66 1016.62 1016.63 1017.15 1016.83 1016.79 1016.52 1017.00 1017.49 1017.74 1017.98 1018.78 1018.39 1018.41 1018.42 1018.59 1019.19 1019.11 1019.27 1019.16 1019.48 1019.86
1023.71 1023.33 1022.95 1022.55 1022.08 1021.54 1020.98 1020.50 1019.99 1019.46 1019.04 1018.53 1018.05 1017.55 1017.12 1016.66 1017.09 1017.85 1018.23 1018.27 1018.32 1018.61 1018.74 1018.57 1017.17 1016.51 1016.41 1016.50 1016.87 1016.66 1016.63 1016.82 1016.81 1017.57 1017.96 1018.57 1018.76 1018.61 1018.74 1019.06 1019.16 1019.46 1019.57 1019.55 1019.68 1020.15 1021.04
1023.83 1023.46 1023.05 1022.57 1022.11 1021.60 1021.00 1020.44 1019.92 1019.43 1018.98 1018.48 1018.03 1017.59 1017.21 1016.79 1017.67 1018.22 1018.78 1018.44 1018.34 1018.47 1019.36 1018.91 1017.47 1016.28 1016.53 1016.95 1017.24 1016.86 1016.82 1016.97 1017.52 1017.90 1018.17 1019.61 1019.28 1019.13 1019.25 1019.73 1019.36 1019.94 1019.87 1020.13 1020.44 1021.14 1021.76
1023.99 1023.55 1023.17 1022.69 1022.18 1021.65 1021.08 1020.51 1019.90 1019.33 1018.84 1018.30 1017.95 1017.64 1017.23 1017.58 1018.13 1018.64 1018.50 1018.30 1018.60 1019.35 1020.32 1019.38 1018.35 1017.67 1017.52 1017.54 1017.71 1017.39 1017.29 1017.19 1017.68 1018.23 1018.82 1019.81 1019.65 1019.78 1019.90 1019.91 1019.60 1019.95 1020.31 1020.75 1021.26 1021.83 1022.86
1024.04 1023.65 1023.23 1022.77 1022.31 1021.77 1021.18 1020.57 1019.96 1019.33 1018.79 1018.34 1017.97 1017.76 1017.46 1017.98 1018.60 1018.44 1018.43 1018.70 1019.81 1020.35 1021.26 1020.28 1019.27 1018.70 1018.73 1018.87 1018.79 1018.70 1019.08 1019.13 1019.43 1019.60 1020.17 1020.32 1020.46 1020.36 1020.15 1020.07 1020.07 1020.28 1021.07 1022.17 1022.86 1023.21 1023.72
1023.94 1023.68 1023.29 1022.89 1022.39 1021.90 1021.32 1020.64 1019.94 1019.32 1018.80 1018.36 1018.08 1017.83 1018.26 1018.51 1018.50 1018.26 1018.52 1019.39 1020.73 1021.63 1021.24 1020.43 1019.88 1019.34 1019.28 1019.26 1019.59 1019.89 1020.04 1020.63 1020.42 1020.60 1021.35 1021.46 1021.53 1021.26 1020.91 1020.98 1020.71 1020.99 1021.38 1022.24 1023.44 1024.43 1024.17
1023.82 1023.60 1023.33 1022.99 1022.50 1021.99 1021.43 1020.72 1019.98 1019.28 1018.67 1018.19 1018.03 1018.49 1018.68 1018.65 1018.51 1018.37 1018.97 1020.98 1022.21 1022.02 1021.40 1020.82 1020.13 1020.01 1019.88 1019.61 1019.57 1020.13 1021.17 1021.59 1021.37 1021.10 1021.26 1021.57 1021.95 1021.67 1021.42 1021.18 1021.28 1021.31 1021.73 1022.32 1023.48 1025.15 1024.51
1023.68 1023.54 1023.24 1022.97 1022.59 1022.09 1021.49 1020.83 1020.07 1019.29 1018.63 1018.17 1018.65 1018.97 1019.20 1018.83 1018.65 1018.87 1019.70 1022.12 1022.33 1021.86 1021.37 1021.02 1020.80 1020.68 1020.68 1020.39 1020.35 1020.34 1021.10 1021.43 1021.51 1021.30 1021.08 1021.51 1021.99 1022.14 1021.71 1021.44 1021.42 1021.49 1022.24 1022.63 1023.01 1024.27 1024.38
1023.57 1023.44 1023.19 1022.91 1022.64 1022.21 1021.58 1020.92 1020.16 1019.34 1018.69 1018.29 1018.82 1019.31 1019.18 1018.92 1018.92 1019.56 1021.79 1022.37 1021.98 1021.49 1021.27 1021.25 1021.11 1021.04 1021.06 1021.03 1021.06 1021.30 1021.49 1021.54 1021.40 1021.14 1020.97 1021.22 1021.53 1022.51 1022.09 1022.15 1022.17 1022.24 1022.33 1022.97 1023.43 1023.92 1023.96
1023.47 1023.28 1023.13 1022.83 1022.62 1022.32 1021.69 1020.95 1020.27 1019.54 1018.66 1018.44 1019.21 1019.93 1019.29 1019.08 1019.71 1021.32 1022.11 1021.63 1021.25 1021.19 1021.02 1020.89 1020.76 1020.91 1021.01 1021.11 1021.36 1021.52 1021.77 1021.90 1021.75 1021.52 1021.38 1021.48 1021.98 1022.77 1022.70 1022.52 1022.44 1022.47 1022.74 1023.13 1023.81 1024.49 1024.47
1023.22 1023.09 1022.95 1022.76 1022.57 1022.33 1021.79 1021.04 1020.37 1019.80 1019.37 1019.63 1020.25 1020.32 1019.43 1019.26 1020.86 1022.15 1021.94 1021.58 1021.24 1021.03 1020.94 1020.85 1021.00 1021.00 1021.02 1021.24 1021.47 1021.57 1021.74 1021.89 1021.95 1022.02 1022.04 1021.84 1022.16 1022.85 1023.07 1023.12 1022.73 1022.71 1022.93 1023.37 1023.85 1024.13 1024.20
1023.03 1022.99 1022.82 1022.66 1022.53 1022.30 1021.95 1021.26 1020.54 1019.87 1019.52 1019.88 1020.67 1021.07 1020.62 1020.85 1022.12 1021.88 1021.77 1021.57 1021.25 1021.02 1020.94 1020.88 1020.93 1020.98 1021.13 1021.34 1021.53 1021.72 1021.79 1021.90 1021.97 1022.04 1022.07 1022.24 1022.74 1022.48 1022.50 1022.34 1022.48 1023.00 1023.13 1023.37 1023.57 1024.19 1023.73
1022.78 1022.78 1022.67 1022.55 1022.39 1022.23 1021.97 1021.50 1020.80 1019.99 1019.42 1019.99 1021.61 1022.74 1022.65 1022.69 1022.52 1022.13 1021.68 1021.29 1020.98 1020.89 1020.94 1020.95 1021.15 1021.21 1021.29 1021.47 1021.61 1021.86 1022.04 1022.07 1022.11 1022.15 1022.27 1022.68 1023.39 1023.52 1023.26 1023.21 1023.02 1022.69 1022.70 1023.03 1023.32 1022.98 1022.98
1022.47 1022.50 1022.51 1022.43 1022.36 1022.19 1021.98 1021.72 1021.13 1020.27 1019.59 1020.60 1022.34 1022.85 1023.12 1022.95 1022.64 1022.06 1021.77 1021.52 1021.27 1021.03 1021.02 1021.08 1021.17 1021.31 1021.42 1021.68 1021.78 1021.92 1022.15 1022.41 1022.45 1022.77 1023.01 1023.34 1023.74 1024.01 1023.82 1023.34 1023.26 1023.24 1022.99 1023.26 1023.23 1023.08 1022.64
1022.09 1022.18 1022.27 1022.24 1022.13 1022.09 1021.94 1021.80 1021.46 1020.82 1020.12 1021.28 1022.61 1022.65 1022.67 1023.19 1022.69 1022.24 1021.66 1021.26 1021.13 1021.19 1021.33 1021.28 1021.44 1021.67 1021.79 1021.82 1021.87 1022.15 1022.30 1022.51 1022.85 1023.23 1023.62 1023.81 1024.09 1024.43 1023.89 1023.41 1022.91 1022.48 1021.63 1021.97 1022.18 1022.21 1022.13
1021.70 1021.74 1021.90 1021.96 1021.92 1021.86 1021.85 1021.81 1021.66 1021.45 1021.35 1022.22 1022.88 1022.86 1022.93 1023.07 1022.88 1022.25 1021.69 1021.36 1021.14 1021.09 1021.28 1021.50 1021.67 1021.90 1022.21 1022.06 1022.22 1022.41 1022.70 1022.92 1023.28 1023.79 1023.90 1024.30 1024.50 1024.57 1024.57 1023.82 1022.67 1020.78 1020.55 1020.58 1020.81 1020.96 1021.17
1021.25 1021.41 1021.54 1021.62 1021.58 1021.53 1021.53 1021.75 1021.70 1021.70 1021.70 1022.22 1022.92 1023.17 1023.19 1022.99 1022.58 1022.10 1021.87 1021.75 1021.64 1021.56 1021.57 1021.49 1021.70 1022.04 1022.07 1022.19 1022.69 1022.90 1023.04 1023.33 1023.77 1024.24 1024.34 1024.62 1024.86 1025.05 1024.89 1024.11 1021.97 1020.83 1020.34 1020.22 1020.38 1020.63 1020.52
1021.49 1021.41 1021.41 1021.41 1021.36 1021.37 1021.30 1021.35 1021.64 1021.72 1021.84 1022.27 1022.80 1022.98 1023.12 1023.23 1022.67 1022.14 1022.05 1022.06 1022.19 1022.30 1022.33 1022.19 1022.29 1022.20 1022.27 1022.83 1023.22 1023.57 1023.67 1023.58 1024.09 1024.54 1024.64 1024.81 1024.98 1025.30 1025.36 1024.35 1022.39 1020.32 1019.93 1019.84 1020.08 1020.25 1020.23
1022.01 1021.75 1021.56 1021.46 1021.45 1021.28 1021.16 1021.09 1021.21 1021.37 1021.69 1022.26 1022.69 1022.74 1022.88 1023.18 1022.40 1022.04 1021.97 1022.10 1022.14 1022.52 1022.70 1022.66 1022.70 1022.88 1022.93 1023.49 1023.93 1024.13 1023.89 1023.68 1024.19 1024.65 1025.09 1025.26 1025.40 1025.37 1025.16 1024.22 1021.90 1020.00 1019.63 1019.84 1020.22 1020.34 1019.66
1022.32 1022.22 1021.88 1021.62 1021.59 1021.38 1021.15 1020.96 1020.94 1020.98 1021.26 1021.77 1022.46 1022.68 1022.80 1023.02 1022.36 1021.98 1021.61 1021.59 1021.90 1022.08 1022.40 1022.92 1023.27 1023.40 1023.79 1024.10 1024.31 1024.25 1024.30 1023.90 1024.05 1024.04 1024.33 1024.88 1025.13 1024.98 1024.81 1024.00 1021.88 1019.89 1019.81 1020.00 1019.91 1019.51 1019.64
1022.31 1022.13 1022.06 1021.89 1021.73 1021.49 1021.21 1020.84 1020.75 1020.73 1020.84 1021.24 1022.06 1022.24 1022.45 1022.94 1022.30 1021.67 1021.32 1021.01 1021.05 1021.14 1021.51 1022.33 1022.54 1022.57 1022.68 1023.58 1024.14 1024.20 1024.38 1024.58 1024.50 1024.43 1023.99 1023.83 1023.10 1023.17 1022.96 1021.48 1020.18 1019.87 1019.82 1019.66 1019.63 1019.78 1019.87
Thickness
5635 5633 5631 5628 5625 5622 5619 5617 5613 5610 5606 5602 5598 5590 5581 5572 5562 5554 5545 5536 5527 5521 5517 5511 5512 5511 5508 5496 5492 5499 5503 5506 5510 5516 5520 5526 5532 5536 5544 5556 5572 5582 5596 5611 5630 5641 5649
5632 5630 5628 5626 5624 5621 5618 5615 5612 5609 5606 5602 5597 5590 5581 5572 5563 5556 5545 5536 5529 5522 5517 5514 5515 5513 5504 5490 5493 5498 5504 5507 5511 5515 5519 5522 5527 5534 5545 5555 5569 5581 5594 5608 5624 5633 5642
5630 5628 5626 5624 5622 5620 5618 5616 5613 5610 5606 5602 5598 5592 5583 5574 5565 5558 5549 5538 5530 5525 5519 5517 5516 5512 5498 5488 5494 5498 5503 5506 5510 5517 5521 5521 5525 5535 5547 5554 5564 5577 5591 5606 5614 5626 5637
5628 5627 5625 5623 5622 5620 5619 5617 5615 5612 5608 5603 5599 5592 5586 5578 5569 5563 5554 5544 5535 5529 5524 5519 5516 5511 5494 5496 5499 5501 5503 5507 5510 5514 5518 5521 5526 5533 5544 5553 5560 5574 5583 5594 5612 5624 5637
5625 5624 5623 5623 5621 5620 5620 5619 5617 5614 5609 5604 5599 5593 5587 5582 5574 5568 5561 5550 5542 5536 5529 5524 5517 5510 5488 5496 5504 5507 5509 5509 5513 5514 5519 5523 5528 5531 5543 5547 5554 5559 5571 5590 5609 5616 5632
5624 5622 5622 5622 5620 5619 5619 5618 5617 5615 5611 5606 5601 5596 5588 5582 5577 5572 5567 5558 5547 5541 5533 5527 5519 5508 5493 5498 5503 5512 5514 5516 5517 5521 5524 5527 5528 5530 5533 5547 5554 5567 5569 5586 5602 5611 5627
5622 5621 5621 5621 5620 5618 5617 5618 5617 5615 5613 5609 5604 5599 5592 5585 5580 5575 5571 5560 5543 5538 5533 5519 5517 5512 5505 5504 5509 5514 5517 5519 5523 5524 5520 5526 5521 5524 5537 5551 5561 5569 5579 5588 5596 5606 5620
5620 5620 5620 5620 5619 5618 5617 5617 5616 5615 5614 5611 5607 5602 5596 5590 5584 5578 5569 5550 5540 5533 5532 5531 5526 5523 5519 5516 5511 5514 5519 5519 5514 5517 5524 5525 5522 5529 5541 5553 5560 5569 5580 5582 5594 5602 5618
5618 5618 5619 5619 5619 5618 5617 5616 5616 5615 5614 5612 5609 5605 5602 5596 5589 5580 5564 5553 5545 5537 5534 5537 5533 5530 5526 5524 5515 5518 5521 5526 5524 5522 5525 5528 5525 5535 5546 5551 5562 5556 5574 5583 5598 5601 5594
5615 5616 5617 5618 5618 5618 5617 5617 5616 5616 5614 5613 5611 5608 5604 5601 5590 5577 5567 5559 5552 5544 5512 5526 5536 5537 5534 5531 5526 5530 5529 5529 5531 5527 5524 5523 5529 5540 5547 5551 5559 5567 5572 5583 5593 5599 5595
5611 5613 5615 5617 5617 5617 5617 5618 5618 5617 5616 5615 5614 5611 5607 5603 5590 5579 5571 5564 5558 5551 5497 5537 5538 5547 5539 5535 5531 5533 5534 5532 5528 5527 5534 5526 5531 5539 5546 5551 5563 5568 5576 5583 5587 5585 5583
5607 5610 5612 5614 5616 5616 5617 5617 5618 5619 5619 5619 5617 5613 5610 5601 5591 5582 5577 5571 5563 5527 5507 5535 5541 5537 5537 5535 5533 5536 5535 5536 5536 5534 5529 5529 5537 5540 5548 5553 5564 5564 5574 5575 5572 5582 5575
5603 5606 5609 5612 5613 5615 5616 5617 5618 5620 5621 5620 5619 5615 5611 5601 5592 5587 5583 5574 5543 5515 5535 5543 5541 5542 5539 5532 5534 5530 5526 5519 5521 5522 5511 5529 5536 5544 5550 5561 5568 5572 5570 5547 5569 5566 5584
5600 5602 5605 5608 5610 5612 5614 5616 5618 5620 5621 5621 5619 5617 5609 5601 5596 5592 5585 5565 5541 5533 5539 5547 5547 5549 5548 5542 5538 5528 5531 5517 5527 5525 5505 5508 5521 5538 5548 5555 5571 5569 5576 5556 5571 5570 5583
5597 5599 5602 5604 5607 5609 5612 5615 5617 5620 5622 5623 5621 5614 5608 5604 5599 5595 5581 5537 5524 5542 5552 5549 5552 5548 5547 5550 5552 5537 5521 5522 5531 5530 5540 5531 5540 5546 5551 5558 5567 5578 5573 5573 5544 5518 5562
5594 5596 5599 5601 5604 5607 5610 5613 5617 5620 5622 5623 5617 5611 5607 5605 5602 5594 5569 5551 5556 5552 5554 5554 5554 5548 5547 5546 5552 5550 5541 5539 5538 5542 5544 5547 5547 5546 5557 5564 5567 5576 5566 5577 5565 5583 5584
5590 5592 5595 5598 5600 5603 5607 5611 5615 5619 5622 5622 5615 5611 5609 5607 5603 5588 5553 5551 5562 5564 5561 5555 5554 5552 5549 5547 5546 5543 5547 5548 5546 5551 5552 5557 5555 5551 5559 5559 5567 5572 5576 5564 5565 5563 5582
5586 5588 5590 5594 5595 5597 5602 5607 5611 5616 5621 5621 5610 5598 5609 5607 5594 5563 5567 5577 5577 5572 5568 5566 5564 5560 5557 5551 5546 5550 5550 5546 5545 5552 5561 5557 5545 5532 5560 5558 5562 5567 5573 5564 5569 5572 5538
5582 5584 5586 5589 5591 5593 5597 5603 5607 5611 5614 5610 5603 5599 5608 5607 5579 5569 5579 5582 5579 5577 5573 5571 5567 5564 5562 5560 5560 5552 5551 5551 5546 5551 5559 5562 5553 5534 5560 5561 5563 5568 5566 5556 5548 5550 5557
5577 5578 5580 5583 5585 5587 5590 5596 5601 5606 5609 5606 5600 5591 5595 5586 5573 5585 5589 5584 5583 5577 5577 5574 5572 5569 5568 5565 5560 5562 5558 5557 5552 5555 5560 5554 5544 5568 5570 5577 5566 5567 5564 5557 5564 5549 5563
5571 5573 5574 5576 5578 5580 5583 5587 5593 5600 5605 5601 5585 5576 5577 5567 5579 5581 5584 5586 5587 5585 5579 5576 5574 5572 5570 5570 5567 5566 5561 5561 5561 5558 5554 5552 5556 5527 5552 5550 5556 5568 5572 5555 5558 5562 5573
5564 5566 5567 5569 5571 5573 5575 5578 5583 5592 5599 5589 5586 5583 5567 5567 5572 5585 5577 5583 5584 5583 5581 5579 5578 5575 5571 5571 5571 5569 5567 5563 5569 5558 5557 5545 5551 5544 5559 5551 5546 5547 5548 5543 5547 5550 5548
5556 5558 5559 5561 5564 5566 5568 5570 5574 5581 5589 5578 5568 5569 5574 5558 5567 5574 5576 5583 5583 5579 5576 5576 5574 5569 5571 5571 5564 5562 5557 5554 5560 5561 5551 5549 5542 5540 5562 5542 5546 5562 5560 5546 5550 5545 5554
5548 5551 5552 5554 5557 5560 5561 5563 5566 5569 5573 5568 5562 5563 5569 5574 5560 5569 5576 5577 5578 5577 5578 5571 5568 5570 5563 5558 5557 5554 5552 5550 5547 5536 5538 5540 5540 5532 5530 5536 5545 5581 5564 5561 5561 5558 5544
5540 5543 5545 5546 5550 5553 5555 5556 5558 5559 5561 5560 5555 5555 5556 5562 5557 5563 5566 5569 5566 5564 5567 5568 5564 5557 5552 5555 5549 5553 5543 5552 5537 5526 5535 5525 5528 5521 5520 5507 5552 5558 5562 5559 5562 5562 5547
5528 5531 5535 5537 5541 5544 5547 5548 5549 5550 5552 5552 5547 5547 5545 5548 5553 5559 5556 5555 5550 5546 5550 5554 5548 5546 5547 5535 5541 5558 5555 5555 5547 5533 5523 5519 5513 5514 5506 5513 5551 5564 5554 5549 5545 5539 5538
5512 5517 5523 5525 5528 5533 5536 5540 5540 5541 5541 5540 5539 5539 5537 5537 5541 5548 5544 5544 5537 5534 5536 5535 5539 5537 5533 5524 5533 5528 5529 5531 5536 5527 5512 5509 5506 5505 5499 5498 5517 5536 5538 5534 5536 5534 5531
5496 5501 5508 5513 5515 5519 5524 5528 5530 5532 5532 5531 5527 5528 5528 5523 5528 5534 5539 5535 5529 5526 5532 5524 5527 5520 5509 5520 5517 5513 5504 5510 5515 5511 5501 5499 5488 5486 5484 5485 5495 5523 5526 5526 5518 5517 5517
5480 5485 5491 5498 5501 5505 5510 5516 5519 5521 5522 5522 5518 5518 5517 5513 5519 5525 5528 5532 5531 5530 5521 5511 5521 5514 5513 5501 5493 5490 5498 5475 5485 5504 5487 5496 5500 5493 5494 5500 5512 5508 5509 5502 5499 5497 5499